Location: Unspecified
(0.0000°N, 0.0000°E)
Time: 11:27:11
(UTC+00:00)

Vanguard 2 Rocket - Pass Details

Date: 17 December 2017
Orbit: 556 x 3326 km, 32.9° (Epoch: 17 January)

Event Time Altitude Azimuth Distance (km) Brightness Sun altitude
Exits shadow 00:57:02 28° 86° (E) 4,266 10.2 -62.3°
Drops below altitude 10° 01:03:00 10° 101° (E) 5,175 10.9 -61.5°
Sets 01:06:36 0° 106° (ESE) 5,866 11.4 -61.0°
